Regional Weather Roundup
Issued by NWS

Home | Current Version | Previous Version | Graphics & Text | Print | Product List | Glossary On
Versions: 1 2 3 4 5 6 7 8 9 10 11 12 13 14 15 16 17 18 19 20 21 22 23 24 25 26 27 28 29 30 31 32 33 34 35 36 37 38 39 40 41 42 43 44 45 46 47
000
ASUS45 KTFX 022010
RWRMT
MONTANA REGIONAL WEATHER ROUNDUP
NATIONAL WEATHER SERVICE GREAT FALLS MT
200 PM MDT SUN AUG 02 2015

NOTE: "FAIR" INDICATES FEW OR NO CLOUDS BELOW 12000 FEET WITH NO
SIGNIFICANT WEATHER AND/OR OBSTRUCTIONS TO VISIBILITY.

MTZ001>007-043-022100-
WEST OF THE DIVIDE

CITY           SKY/WX    TMP DP  RH WIND       PRES   REMARKS
KALISPELL      CLEAR     89  35  14 S8        29.95F
MISSOULA       SUNNY     85  38  18 CALM      29.99F
BUTTE          SUNNY     83  10   6 CALM      30.14F
MULLAN PASS    SUNNY     82  23  11 VRB5      30.18S
DEER LODGE       N/A     84  28  13 E3        30.11F
EUREKA           N/A     88  41  19 N3        29.93F
HAMILTON         N/A     84  46  26 N5        29.99F
LIBBY            N/A     88  36  15 NW3       29.92F
PLAINS           N/A     91  40  16 CALM      29.93F
RONAN            N/A     87  42  20 CALM      30.03F
THOMPSON FALLS   N/A     94  37  13 E7        29.94F
$$

MTZ008-052>055-022100-
SOUTHWEST MONTANA

CITY           SKY/WX    TMP DP  RH WIND       PRES   REMARKS
BOZEMAN        SUNNY     87  39  18 N5        30.07F
DILLON         SUNNY     87  32  14 VRB5      30.10F
W YELLOWSTONE  SUNNY     82  28  14 CALM      30.20F
THREE FORKS      N/A     86  33  15 NE5       30.05F
TWIN BRIDGES     N/A     85  35  16 SE5       30.07F
$$

MTZ009-010-012-014-046-048-049-054-022100-
EAST SLOPES AND CENTRAL MONTANA

CITY           SKY/WX    TMP DP  RH WIND       PRES   REMARKS
CUT BANK       SUNNY     79  50  36 SE10      30.05F
GREAT FALLS    SUNNY     80  51  36 CALM      30.05F
MALMSTROM AFB  SUNNY     78  53  42 NE2       30.04F
HELENA         SUNNY     87  43  21 E3        30.02F
CONRAD           N/A     81  57  43 E6        30.07F
$$

MTZ011-013-016-021-045-047-050-051-022100-
NORTH CENTRAL MONTANA

CITY           SKY/WX    TMP DP  RH WIND       PRES   REMARKS
HAVRE          SUNNY     83  50  31 E13       30.01F
LEWISTOWN      SUNNY     81  48  31 E12       30.09F
CHINOOK          N/A     79  52  38 NE7       30.02F
FORT BENTON      N/A     81  54  39 E7        30.03F
$$

MTZ017>020-022>027-061-062-022100-
NORTHEAST MONTANA

CITY           SKY/WX    TMP DP  RH WIND       PRES   REMARKS
GLASGOW        SUNNY     80  48  32 CALM      30.02S
JORDAN           N/A     84  48  28 N7        30.03F
SIDNEY         SUNNY    N/A N/A N/A N9G17     29.99S
WOLF POINT     SUNNY     84  46  26 VRB6      30.01F
MALTA            N/A     82  53  36 E1        30.00F
PLENTYWOOD       N/A     75  48  38 N10G16    30.02R
POPLAR           N/A     79  48  34 NW9       30.02S
SCOBEY           N/A     76  45  33 NW7       30.03S
$$

MTZ028>42-056>058-022100-
SOUTHCENTRAL AND SOUTHEAST MONTANA

CITY           SKY/WX    TMP DP  RH WIND       PRES   REMARKS
BAKER          SUNNY     85  47  26 N14G23    30.03S
BILLINGS       MOSUNNY   83  47  28 NE13      30.06F
LIVINGSTON     SUNNY     89  37  16 VRB7      30.07F
MILES CITY     SUNNY     84  47  27 E13G20    30.01S
EKALAKA          N/A     83  42  23 E10       30.02S
FORSYTH          N/A     84  43  23 E13G22    30.01F
LAUREL           N/A     83  48  29 NE9       30.04S
ROUNDUP          N/A     83  42  23 CALM      29.98S
$$

REGIONAL REPORTS...DAKOTAS

CITY           SKY/WX    TMP DP  RH WIND       PRES   REMARKS
WILLISTON      SUNNY     80  48  32 N13G18    30.00S
MINOT          MOSUNNY   77  48  35 NW12G23   29.94S
DICKINSON      SUNNY     80  50  34 N13       29.99S
CROSBY         FAIR      75  48  38 NW12      30.00S
BISMARCK       MOSUNNY   80  54  40 N10G18    29.94S
GRAND FORKS    MOSUNNY   76  48  37 NW17      29.82S
FARGO          MOSUNNY   80  54  40 NW16G23   29.83S
BUFFALO SD       N/A     83  46  27 NE7       29.96R
RAPID CITY     SUNNY     84  54  35 NE8       30.01S
$$

REGIONAL REPORTS...WYOMING/IDAHO/WASHINGTON

CITY           SKY/WX    TMP DP  RH WIND       PRES   REMARKS
GILLETTE       SUNNY     89  41  18 N9        30.03S
SHERIDAN       SUNNY     87  40  19 W13       30.04S
BUFFALO WY     SUNNY     87  39  18 N18G26    30.10R
CODY           SUNNY     82  43  24 N15G21    30.11R
YELLOWSTONE LA   N/A     75  39  27 E7        30.32F
IDAHO FALLS    SUNNY     93  31  11 VRB6      30.03F
SALMON         SUNNY     84  43  23 CALM      29.98F
BOISE          SUNNY     96  42  15 W8        29.88F HX  92
SPOKANE        CLOUDY    94  27   9 S7        29.91F HAZE
$$

REGIONAL REPORTS...ALBERTA

CITY           SKY/WX    TMP DP  RH WIND       PRES   REMARKS
EDMONTON       PTSUNNY   77  50  38 SE6       29.99S
CALGARY        PTSUNNY   79  52  38 SE16G22   30.02F
LETHBRIDGE     MOSUNNY   79  55  44 E7        30.01F
MEDICINE HAT   MOSUNNY   82  46  28 VRB6      30.01F
WATERTON GATE    N/A     77  54  44 NE7         N/A
CARDSTON         N/A     81  50  34 E5          N/A
MILK RIVER       N/A     82  50  32 SE9         N/A
ONEFOUR          N/A     81  43  26 SE9         N/A
$$

REGIONAL REPORTS...SASKATCHEWAN

CITY           SKY/WX    TMP DP  RH WIND       PRES   REMARKS
SWIFT CURRENT  SUNNY     73  52  46 NE7       30.06S
REGINA         MOSUNNY   75  46  35 N17       30.01S
SASKATOON      MOSUNNY   75  48  38 NW12      30.03S
CYPRESS HILLS    N/A     72  50  46 NE3         N/A
VAL MARIE        N/A     77  50  38 NE7         N/A
ROCKGLEN         N/A     72  46  40 NW8         N/A
$$


USA.gov is the U.S. government's official web portal to all federal, state and local government web resources and services.